Location: Arrodets-la-Barthe
(43.0306°N, 0.2829°E)
Time: 10:48:38
(UTC+00:00)

Iridium 4 Rocket - Pass Details

Date: 05 June 2022
Orbit: 585 x 902 km, 86.9° (Epoch: 01 July)

Event Time Altitude Azimuth Distance (km) Brightness Sun altitude
Rises 21:30:58 0° 3° (N) 3,156 7.6 -16.2°
Reaches altitude 10° 21:33:16 10° 8° (N) 2,278 6.6 -16.4°
Maximum altitude 21:38:16 52° 85° (E) 986 3.9 -17.0°
Enters shadow 21:40:49 29° 147° (SSE) 1,463 4.3 -17.2°
